Location: Heidgraben
(53.7081°N, 9.6576°E)
Time: 10:03:29
(UTC+00:00)

Cosmos 2056 Rocket - Pass Details

Date: 05 July 2020
Orbit: 741 x 801 km, 74.0° (Epoch: 05 August)

Event Time Altitude Azimuth Distance (km) Brightness Sun altitude
Rises 21:14:33 0° 334° (NNW) 3,297 9.2 -8.5°
Reaches altitude 10° 21:17:04 10° 341° (NNW) 2,372 7.6 -8.7°
Maximum altitude 21:22:15 45° 54° (NE) 1,083 4.4 -9.1°
Drops below altitude 10° 21:27:27 10° 127° (SE) 2,377 5.5 -9.4°
Enters shadow 21:27:37 - 128° (SE) 2,442 5.5 -9.4°
